SCP
0 0 0 0 0 0 0 0 0 0 0 0 0 0 0 0 0 0 0 0 0 0 0 0 0 0 0 0 0 0 0 0 0 0 0 0 0 0 0 0 0 0 0 0 0 0 0 0 -0 0 0 -0 -0 0
0 0 0 0 0 0 0 0 0 0 0 0 0 0 0 0 0 0 0 0 0 0 0 0 -0 -0 -0 -0 0 0 0 0 0 0 0 0 0 0 0 0 0 0 0 0 0 0 0 0 0 0 -0 0 0 0
0 0 0 0 0 0 0 0 0 0 0 0 0 0 0 0 0 0 0 0 0 0 0 0 0 0 0 0 0 0 0 0 0 0 0 0 0 0 0 0 -0 0 -0 -0 -0 -0 -0 -0 0 0 0 0 0 0
0 0 0 0 0 0 0 0 0 0 0 0 0 0 0 0 0 0 0 0 0 0 0 0 0 0 0 0 0 0 -0 0 0 0 0 0 0 0 0 0 0 -0 -0 -0 0 -0 -0 -0 0 -0 -0 0 0 0
0 0 0 0 0 0 0 0 0 0 0 0 0 0 0 0 0 0 0 0 0 0 0 0 0 0 0 0 0 0 0 0 0 0 0 0 -0 -0 -0 -0 0 -0 0 0 0 0 -0 -0 -0 -0 -0 -0 0 -0
0 0 0 0 0 0 0 0 0 0 0 0 0 0 0 0 0 0 0 0 0 0 0 0 0 0 0 0 0 0 0 0 0 0 0 -0 -0 -0 0 0 0 0 0 0 0 0 0 -0 -0 -0 -0 0 -0 -0
0 0 0 0 0 0 0 0 0 0 0 0 0 0 0 0 0 0 0 0 0 0 0 0 0 0 0 0 0 0 0 0 0 0 -0 -0 -0 0 0 0 0 0 0 0 0 0 0 0 -0 -0 -0 -0 -0 -0
0 0 0 0 0 0 0 0 0 0 0 0 0 0 0 0 0 0 0 0 0 0 0 0 0 0 0 0 0 0 0 0 0 0 0 0 0 0 0 0 -0 -0 -0 0 0 0 0 -0 0 0 -0 -0 -0 -0
0 0 0 0 0 0 0 0 0 0 0 0 0 0 0 0 0 0 0 0 0 0 0 0 0 0 -0 0 0 0 0 0 0 0 0 0 0 0 0 -0 -0 0 0 -0 0 0 -0 -0 -0 -0 -0 -0 -0 -0
0 0 0 0 0 0 0 0 -0 0 0 -0 0 0 0 0 0 0 0 0 0 0 0 0 0 0 0 0 0 0 0 0 0 -0 -0 0 0 0 0 0 0 0 -0 -0 -0 -0 0 -0 -0 0 0 0 -0 -0
0 0 0 0 0 0 0 -0 0 -0 -0 0 0 0 0 0 0 0 0 0 0 0 0 0 -0 0 0 0 0 0 0 0 0 0 -0 0 0 0 0 0 -0 -0 -0 -0 -0 -0 0 0 0 -0 -0 -0 -0 -0
0 0 0 0 0 0 0 0 0 0 0 0 0 0 0 0 0 0 0 0 0 0 0 0 0 0 0 0 0 0 0 0 0 -0 0 -0 0 0 0 -0 -0 -0 0 0 0 0 0 0 0 -0 -0 -0 0 -0
0 0 0 0 0 0 0 0 0 0 -0 0 0 0 0 0 0 0 0 0 0 0 0 0 0 0 0 0 0 0 0 0 0 0 0 0 0 0 -0 -0 0 0 0 -0 -0 -0 -0 -0 -0 -0 0 0 0 0
0 0 0 0 0 0 0 0 0 0 0 0 0 0 0 0 0 -0 0 0 0 0 0 0 0 0 0 0 0 0 0 0 0 0 0 0 0 -0 -0 -0 -0 0 0 0 0 0 0 0 0 0 0 0 0 0
0 0 0 0 0 0 0 0 -0 -0 0 0 0 0 0 0 0 0 0 0 0 0 0 0 0 0 0 0 0 0 0 0 0 0 0 0 -0 -0 -0 -0 -0 0 0 0 0 0 0 0 0 0 0 0 0 0
0 0 0 0 0 0 0 -0 -0 0 0 0 0 0 -0 0 0 0 0 0 0 0 0 0 0 0 0 0 0 0 0 0 0 -0 -0 -0 -0 -0 -0 0 0 0 0 0 0 0 0 0 0 0 0 0 0 0
0 0 0 0 0 0 0 0 0 0 0 0 0 -0 0 0 0 -0 0 0 0 0 0 0 0 0 0 0 0 0 0 0 -0 -0 -0 0 -0 -0 -0 0 0 0 0 0 0 0 0 0 0 0 0 0 0 0
0 0 0 0 0 -0 0 0 0 0 0 0 -0 0 -0 -0 0 0 -0 0 0 0 0 0 0 0 0 0 0 0 0 0 0 -0 0 0 0 0 0 0 0 0 0 0 0 0 0 0 0 0 0 0 0 0
0 0 0 0 0 0 0 0 0 0 -0 0 0 -0 -0 -0 0 0 0 0 0 0 0 0 0 0 0 -0 0 0 0 0 0 -0 0 0 0 0 0 0 0 0 0 0 0 0 0 0 0 0 0 0 0 0
0 0 0 0 0 0 0 0 0 0 0 0 0 -0 -0 -0 0 0 0 0 0 0 0 0 0 0 0 -0 -0 0 0 0 0 -0 0 0 0 0 0 0 0 0 0 0 0 0 0 0 0 0 0 0 0 0
0 0 0 -0 -0 0 0 0 0 -0 0 0 0 0 0 0 0 0 0 -0 -0 0 0 0 0 0 0 0 0 0 0 0 0 0 0 0 0 0 0 0 0 -0 0 0 0 0 0 0 0 0 0 0 0 0
0 -0 0 -0 0 -0 0 0 0 0 0 0 0 0 -0 -0 0 0 0 -0 0 0 0 0 0 0 0 0 0 0 0 0 0 0 0 0 0 0 0 0 0 -0 -0 0 0 0 0 0 0 0 0 0 0 0
0 0 0 -0 0 0 0 -0 0 0 0 0 0 0 0 0 -0 0 0 0 0 -0 -0 0 -0 0 0 0 0 -0 -0 -0 0 0 0 0 0 0 0 0 -0 0 -0 -0 -0 -0 -0 0 0 0 0 -0 -0 -0
0 0 0 0 0 0 0 0 0 0 0 0 0 0 0 0 0 0 0 -0 0 0 -0 0 0 0 0 0 0 0 -0 -0 -0 0 0 0 0 0 0 0 -0 -0 0 0 0 -0 -0 0 0 0 0 -0 0 0
0 0 0 0 0 0 0 0 0 0 0 0 0 0 0 0 0 0 0 0 0 0 0 0 0 0 0 0 0 -0 -0 -0 -0 0 0 0 0 0 0 0 0 -0 -0 -0 -0 -0 -0 0 -0 -0 -0 0 0 0
0 0 0 0 0 0 0 0 0 0 0 0 0 0 0 0 0 0 0 0 0 0 0 0 0 0 0 0 0 -0 -0 -0 0 0 0 0 0 0 0 0 0 0 -0 -0 -0 -0 -0 -0 -0 0 0 0 0 0
0 0 0 0 0 0 0 0 0 0 0 0 0 0 0 0 0 0 0 0 0 0 0 0 0 0 0 0 0 0 0 -0 0 0 0 0 0 0 0 0 0 0 -0 -0 -0 0 0 0 0 0 0 0 0 0
0 0 0 0 0 0 0 0 0 0 0 0 -0 0 0 0 0 -0 0 0 0 0 0 0 0 0 0 0 0 0 0 0 0 0 0 0 0 0 0 0 -0 0 0 -0 0 0 0 0 0 0 0 0 0 0
0 0 0 0 0 0 0 0 0 0 0 0 0 0 0 0 0 0 0 0 0 0 0 0 0 0 0 0 0 0 0 0 0 0 0 0 0 0 0 0 -0 0 0 -0 -0 0 -0 -0 -0 0 0 0 0 0
0 0 0 0 0 0 0 0 0 0 0 0 0 0 0 0 0 0 0 0 0 0 0 0 0 0 0 0 0 0 0 0 0 0 0 0 0 -0 -0 -0 -0 -0 -0 -0 -0 -0 0 0 0 0 0 0 0 0
0 0 0 0 0 0 0 0 0 0 0 0 0 0 0 0 0 0 0 0 0 0 0 0 0 0 0 0 0 0 0 0 0 0 0 0 0 0 0 0 0 -0 0 -0 -0 0 0 0 0 0 0 0 0 0
0 0 0 0 0 0 0 0 0 0 0 0 0 0 0 0 0 0 0 0 0 0 0 0 0 0 0 0 0 0 0 0 0 0 0 0 0 0 0 0 0 0 0 -0 0 0 0 0 0 0 0 0 0 0
0 0 0 0 0 0 0 0 0 0 0 0 0 0 0 0 0 0 0 0 0 0 0 0 0 0 0 0 0 0 0 0 0 0 0 0 0 0 0 0 0 -0 -0 -0 0 0 0 0 0 0 0 0 0 0
Wind_Speed_500mb
38 38 36 36 34 33 32 30 29 27 25 22 20 18 18 13 18 13 14 14 11 21 45 41 31 28 26 24 17 17 21 15 18 14 12 16 16 17 19 23 24 28 20 24 24 24 21 9 26 15 29 47 46 48
38 37 35 33 32 32 31 29 27 27 25 22 20 18 16 15 19 17 13 20 28 28 39 46 54 56 55 43 37 21 26 23 14 12 11 6 16 21 31 26 20 17 19 12 14 18 43 55 40 29 54 38 37 40
37 35 33 32 32 32 30 28 27 25 24 22 22 21 21 20 20 21 17 21 15 24 53 27 21 14 19 33 37 40 30 24 11 15 20 11 12 19 21 19 28 31 33 22 37 38 39 62 60 40 41 45 51 54
35 34 33 33 31 29 26 24 23 22 22 23 19 15 12 13 16 15 20 17 15 12 16 3 5 16 16 17 28 38 41 10 10 18 15 8 10 23 19 27 29 32 33 32 39 32 50 50 64 70 70 64 58 52
34 33 30 28 25 25 24 23 24 24 21 17 17 17 19 23 21 19 23 24 26 15 17 35 45 22 9 25 38 26 32 35 32 19 12 12 28 19 27 25 24 26 20 15 15 44 39 48 54 51 45 39 45 43
33 34 32 27 27 22 21 20 18 16 15 16 16 16 18 20 17 20 11 10 11 14 9 9 24 23 23 18 21 28 28 27 27 14 15 17 34 18 9 14 28 24 22 32 32 42 56 61 55 44 41 38 43 45
33 27 25 26 26 22 25 16 20 22 23 23 25 25 25 27 20 18 11 1 11 4 9 14 13 17 15 19 24 26 25 23 20 9 21 38 35 13 9 23 32 32 37 40 45 49 49 48 47 40 36 35 36 44
24 25 26 26 26 24 25 24 20 17 19 21 21 23 25 26 26 26 24 38 25 15 9 8 10 16 17 18 10 16 17 22 14 14 10 14 8 12 9 19 36 43 43 45 39 43 51 55 47 42 37 37 37 44
26 26 24 22 23 25 23 20 15 16 20 22 23 25 22 15 19 13 19 15 21 20 9 10 15 4 10 10 4 18 15 10 12 13 11 7 5 8 18 32 37 43 40 49 42 41 45 45 45 41 39 35 38 44
26 29 25 21 21 15 16 17 16 18 21 21 16 13 8 9 9 13 8 11 17 22 14 14 29 20 28 15 8 4 12 8 7 13 8 8 5 14 15 27 42 41 41 42 50 50 52 50 48 44 37 33 42 49
19 20 18 21 23 21 15 16 19 13 9 8 6 5 6 15 7 8 8 12 17 12 18 22 28 20 13 11 6 9 6 2 5 8 7 6 1 12 27 33 35 38 39 37 37 39 40 40 41 40 38 37 40 38
22 21 23 18 20 25 24 18 13 10 11 7 15 18 15 11 14 10 9 12 13 9 14 11 12 15 9 7 10 8 5 4 9 18 3 2 2 23 26 36 41 40 41 40 38 34 36 38 36 33 33 35 33 40
25 26 25 26 25 23 25 20 16 17 15 14 9 8 9 11 7 11 13 10 8 6 11 12 9 11 14 16 11 7 7 11 1 3 3 5 18 26 34 37 40 37 38 37 36 33 35 37 37 32 30 31 34 35
16 15 17 14 14 15 15 15 15 11 8 11 11 8 9 11 12 9 12 8 6 5 3 14 10 11 13 11 8 4 8 6 2 1 8 10 24 28 32 36 34 36 39 39 37 34 35 36 37 36 33 36 30 35
13 10 11 12 13 13 14 15 15 14 10 10 9 8 13 17 13 10 16 9 8 12 12 13 15 16 9 5 4 7 6 4 3 7 8 21 22 26 30 34 30 33 38 37 36 36 36 36 38 38 38 36 34 33
13 11 13 12 10 12 13 13 14 18 9 9 11 14 22 20 15 9 13 9 13 7 15 17 7 7 8 5 5 9 4 6 3 12 18 19 23 26 27 28 26 29 34 33 35 36 35 37 38 37 37 38 37 40
16 9 9 9 9 8 11 10 14 12 11 9 16 21 23 25 25 9 12 11 7 12 9 12 7 3 2 4 5 2 6 12 19 16 17 16 22 25 26 21 24 27 31 31 31 34 35 36 35 38 43 42 40 40
14 15 11 12 11 8 11 13 7 9 14 27 26 29 22 21 23 24 16 14 13 16 17 10 12 5 5 5 5 11 22 21 14 9 13 16 20 22 25 23 21 23 25 29 28 29 33 36 39 39 39 41 42 40
18 16 11 15 15 9 7 11 11 10 20 26 21 22 26 23 25 26 27 22 20 20 15 12 9 11 3 5 1 6 22 14 10 8 9 11 18 24 22 22 22 18 20 22 28 25 28 32 33 36 38 38 43 47
20 18 16 17 14 6 6 6 9 10 14 14 23 23 26 26 28 24 25 26 28 30 23 14 21 33 17 9 15 6 13 5 5 6 12 19 21 23 20 21 22 14 15 18 16 27 23 26 30 32 39 41 40 43
15 16 18 16 12 11 6 8 9 14 20 21 23 19 19 25 27 29 32 32 33 37 29 34 38 36 28 20 8 2 1 5 8 10 17 24 25 22 24 20 19 15 15 17 18 20 22 22 27 30 32 35 40 39
11 14 12 16 10 11 10 15 14 16 16 28 31 31 27 28 26 27 32 34 39 42 39 37 38 35 35 34 29 21 19 15 17 20 23 23 23 22 22 19 20 13 12 15 16 17 18 21 21 27 31 33 34 38
9 10 7 8 7 9 11 13 10 10 7 10 12 8 11 14 16 12 9 21 34 30 30 33 35 36 36 29 27 30 32 31 30 26 23 22 23 18 18 17 14 9 8 11 11 13 14 19 22 23 26 30 34 37
9 5 6 8 14 9 9 11 12 9 8 9 7 8 9 6 6 8 12 28 24 19 23 18 19 25 30 34 37 34 31 28 27 26 25 23 20 16 12 13 10 6 7 7 7 10 11 13 16 17 21 26 30 33
4 8 9 11 11 8 8 7 10 9 10 10 5 9 5 4 5 6 10 9 7 11 8 9 15 20 22 25 28 31 31 29 25 22 19 18 16 14 14 9 6 3 2 2 5 5 7 9 11 13 15 18 25 30
9 11 11 7 7 8 7 5 5 5 5 4 7 8 5 3 5 7 6 16 11 6 5 6 15 16 17 17 17 20 25 25 23 20 17 16 14 14 15 7 9 8 2 2 3 1 2 4 4 5 7 13 22 21
8 9 14 12 10 10 9 15 19 10 6 6 6 5 4 7 4 4 13 11 3 5 5 11 15 13 9 14 10 14 17 19 20 18 13 14 14 12 14 10 3 3 2 1 2 3 3 2 2 1 2 6 10 13
12 9 5 8 8 10 7 8 6 4 5 6 11 4 6 12 8 12 12 16 13 9 10 13 17 14 6 7 13 16 15 15 15 14 14 16 18 17 16 14 7 3 1 2 4 3 4 4 3 4 2 3 5 8
10 12 12 15 12 9 7 9 8 7 4 4 7 6 9 12 18 23 23 11 2 5 4 6 8 15 12 13 12 13 13 13 14 14 13 18 17 15 17 15 10 7 7 7 3 6 7 6 5 4 4 6 8 9
7 5 7 6 5 6 8 14 13 15 18 20 16 15 9 0 27 27 19 15 15 5 3 7 8 14 16 17 19 14 10 8 8 8 10 12 6 10 18 14 12 10 11 7 11 9 4 8 8 8 10 10 10 11
8 5 6 8 9 13 24 23 22 16 11 4 2 5 5 2 14 44 27 21 19 20 17 13 10 10 9 9 13 10 8 5 10 13 12 4 11 5 6 8 10 12 10 7 11 15 16 12 14 13 14 16 13 15
6 5 7 5 8 16 16 11 8 8 10 13 12 10 6 8 17 34 47 29 26 25 21 17 15 17 13 12 10 9 11 7 5 5 8 10 10 6 3 11 13 12 11 14 13 13 11 14 15 14 10 6 7 5
6 9 11 8 7 5 5 3 6 9 21 14 23 22 20 11 15 29 36 35 27 20 19 19 19 17 15 16 18 14 7 6 7 7 6 5 6 8 8 1 4 4 4 3 1 1 1 6 18 23 18 20 13 15
Wind_Direction_500mb
282 283 283 284 285 286 287 290 294 296 299 303 305 299 303 311 321 345 296 302 311 290 283 277 269 265 275 257 267 348 298 180 256 268 293 309 318 339 307 301 291 292 298 292 300 301 294 182 296 287 312 301 302 302
278 278 279 279 280 282 285 290 291 290 289 291 293 290 290 294 299 317 293 279 293 281 267 282 275 263 253 254 272 270 288 305 319 298 305 310 290 289 291 284 297 285 300 277 252 275 298 302 303 292 276 299 311 307
274 273 273 276 280 283 286 287 286 285 288 291 292 292 285 271 276 280 281 289 296 300 305 275 274 247 249 244 236 249 260 258 269 292 314 304 283 287 285 305 323 307 308 304 295 295 324 333 316 339 332 311 308 305
269 270 275 279 280 280 281 281 282 284 286 291 292 296 301 298 278 274 276 292 278 293 285 331 351 239 276 246 231 231 240 270 291 289 287 278 274 287 290 301 294 295 312 308 300 302 322 309 319 314 311 311 308 304
268 271 272 273 275 279 275 274 275 282 285 287 282 283 283 292 277 292 284 272 250 231 306 304 299 277 233 238 231 227 233 240 256 263 241 262 271 275 270 277 276 301 294 293 295 309 305 299 312 317 312 309 311 302
266 268 267 259 262 268 269 278 278 284 291 294 293 287 284 277 293 314 293 162 217 228 274 297 324 275 247 216 201 218 226 231 237 251 258 253 262 284 280 272 299 315 313 302 293 292 290 293 300 306 312 310 316 313
272 270 265 261 255 256 259 267 267 273 281 278 279 280 280 283 285 265 285 318 141 266 276 289 282 172 190 216 221 221 211 211 224 237 242 256 263 224 263 276 293 325 316 306 300 296 292 301 308 310 310 312 315 317
260 259 257 259 253 252 263 271 267 275 287 290 291 293 289 282 277 270 265 256 257 273 247 275 270 245 190 228 217 208 194 197 220 238 258 246 251 205 257 277 318 317 311 306 305 302 299 300 305 308 307 312 316 322
258 259 261 256 259 265 267 261 252 270 293 297 299 302 292 267 249 233 242 251 224 228 260 235 280 88 215 282 299 183 199 192 226 212 221 252 175 223 267 292 304 309 302 304 304 309 317 323 319 317 318 317 309 314
259 256 242 242 238 260 263 243 253 277 306 311 314 244 247 219 241 254 251 198 205 207 231 255 264 277 291 305 287 244 209 219 205 208 170 213 240 262 292 305 299 314 325 329 330 335 335 334 331 327 323 320 315 305
248 231 225 239 242 239 253 237 283 279 317 284 251 250 303 291 253 225 225 220 182 211 211 239 237 245 253 256 271 280 271 117 256 167 213 182 165 319 319 320 331 339 337 330 336 338 340 338 337 333 327 323 318 327
220 235 223 232 250 251 234 245 259 270 254 261 272 288 263 236 225 232 222 196 204 242 178 206 218 221 247 216 221 259 273 223 243 173 224 131 19 331 334 344 343 342 343 346 346 344 345 346 343 339 339 337 334 325
233 238 237 249 253 254 217 229 250 250 266 263 242 249 211 218 254 230 218 207 199 216 176 194 205 220 200 217 224 234 236 243 118 161 99 42 347 349 350 341 346 349 352 351 351 350 349 350 352 353 351 345 341 347
217 213 221 224 221 230 215 228 232 237 239 240 224 237 240 205 232 235 295 335 340 284 289 243 243 212 205 189 226 252 245 256 25 94 54 16 360 349 350 356 357 357 360 359 360 360 359 2 2 9 9 3 358 356
197 206 217 219 233 231 213 210 225 223 249 248 239 243 226 268 244 264 294 285 270 235 287 299 272 242 242 212 92 275 221 186 45 62 43 17 354 355 0 4 4 4 5 7 8 9 10 9 11 13 12 12 7 2
185 207 216 215 221 218 220 224 227 204 239 246 242 262 272 270 292 298 297 257 259 288 290 260 259 246 225 151 212 226 190 88 110 62 38 13 2 5 2 7 7 7 9 10 11 13 13 14 16 16 16 16 13 11
210 229 196 213 213 203 205 220 188 214 228 233 235 235 263 279 290 226 241 274 305 283 292 265 246 350 225 222 230 173 93 125 84 64 36 17 3 359 3 6 9 9 11 11 12 14 17 18 18 21 21 18 19 19
216 212 223 220 204 219 227 206 234 234 239 239 250 262 258 263 272 280 263 263 266 271 290 308 305 276 327 306 164 147 112 97 75 50 28 13 10 2 2 5 5 7 11 14 13 14 18 20 22 22 21 21 20 21
227 201 215 202 191 231 225 212 217 260 248 264 261 264 272 270 264 261 265 255 246 257 273 272 261 264 241 119 42 211 118 90 74 45 13 17 6 1 359 357 10 7 6 8 15 17 19 21 22 23 23 24 25 22
210 217 205 198 200 238 262 224 211 253 268 275 273 262 260 260 259 256 249 240 233 231 227 234 259 273 331 77 192 132 101 99 27 353 354 358 359 352 352 352 353 1 10 18 26 23 24 24 24 23 25 26 26 23
177 198 211 208 211 217 257 287 252 241 279 279 271 278 263 261 259 252 249 239 233 238 235 235 244 258 266 267 321 162 296 293 315 325 327 327 340 332 343 347 350 20 15 22 20 25 26 26 24 24 26 26 26 30
194 188 176 196 222 205 255 237 252 301 278 273 280 270 263 261 261 257 243 229 230 235 235 240 245 248 247 249 251 247 257 270 285 295 298 303 312 323 337 341 343 17 27 24 24 27 28 26 34 26 30 32 32 28
163 187 218 195 207 222 255 208 242 233 252 280 291 269 253 239 239 240 249 237 243 235 231 232 232 237 248 247 241 244 246 252 262 270 279 291 305 306 316 318 2 353 23 29 29 30 28 35 27 35 35 39 40 40
202 234 203 215 215 248 213 216 230 255 267 262 258 261 269 264 281 238 257 260 242 234 219 226 232 230 227 231 239 238 236 238 249 256 259 273 279 282 313 307 349 3 16 33 36 33 29 28 34 39 43 43 42 41
226 234 208 242 225 244 247 236 220 219 240 248 260 269 266 262 256 250 251 236 249 223 201 182 228 223 228 224 224 226 225 226 229 238 244 243 255 273 276 271 284 338 317 1 28 20 29 37 44 48 50 47 44 41
238 216 202 239 222 215 245 268 243 277 316 281 255 290 308 292 271 276 27 12 23 12 6 259 287 251 210 225 206 205 201 206 212 222 228 229 236 256 284 298 288 289 282 303 350 327 9 37 59 61 42 39 40 37
253 242 217 248 274 285 286 276 278 264 238 240 247 264 241 234 197 81 352 16 335 312 261 238 267 294 220 192 183 175 184 191 203 208 219 234 242 254 257 320 343 274 108 327 306 254 241 231 205 170 77 40 31 26
253 294 255 271 244 245 253 282 281 256 274 312 304 261 336 10 24 331 321 322 302 284 250 247 241 248 242 175 182 189 192 198 213 226 246 254 252 249 242 224 210 215 174 272 301 261 237 224 218 217 244 313 346 351
258 273 291 277 271 242 240 221 239 238 270 302 309 341 9 340 356 347 1 24 160 114 126 198 191 185 193 190 186 183 181 183 193 212 232 257 216 207 202 202 212 221 237 230 290 205 226 232 237 241 272 300 316 316
267 281 280 285 256 244 228 215 246 263 276 276 273 292 297 115 28 39 64 83 78 86 157 56 132 160 164 170 167 162 160 189 232 299 304 311 259 193 190 201 215 230 243 247 240 236 188 200 232 254 279 292 306 315
287 269 259 257 262 255 269 286 285 291 281 306 263 224 277 301 32 40 61 85 89 89 73 59 78 107 106 107 140 156 162 249 235 245 257 308 335 327 247 235 239 263 240 267 278 260 253 250 267 280 292 305 315 329
273 265 284 283 290 314 349 31 66 66 66 62 44 42 64 55 33 20 20 45 74 87 82 74 71 65 87 112 141 182 218 244 227 203 196 218 207 204 249 251 272 283 281 286 280 271 282 274 267 274 279 306 271 180
271 271 271 269 274 297 17 112 105 73 52 44 28 36 47 59 38 11 11 25 38 53 66 71 70 75 84 81 63 38 82 105 134 140 137 128 131 134 95 262 283 262 252 215 213 85 304 303 283 278 263 240 257 283
Wind_Speed_850mb
38 38 36 36 34 33 32 30 29 27 25 22 20 18 18 13 18 13 14 14 11 21 45 41 31 28 26 24 17 17 21 15 18 14 12 16 16 17 19 23 24 28 20 24 24 24 21 9 26 15 29 47 46 48
38 37 35 33 32 32 31 29 27 27 25 22 20 18 16 15 19 17 13 20 28 28 39 46 54 56 55 43 37 21 26 23 14 12 11 6 16 21 31 26 20 17 19 12 14 18 43 55 40 29 54 38 37 40
37 35 33 32 32 32 30 28 27 25 24 22 22 21 21 20 20 21 17 21 15 24 53 27 21 14 19 33 37 40 30 24 11 15 20 11 12 19 21 19 28 31 33 22 37 38 39 62 60 40 41 45 51 54
35 34 33 33 31 29 26 24 23 22 22 23 19 15 12 13 16 15 20 17 15 12 16 3 5 16 16 17 28 38 41 10 10 18 15 8 10 23 19 27 29 32 33 32 39 32 50 50 64 70 70 64 58 52
34 33 30 28 25 25 24 23 24 24 21 17 17 17 19 23 21 19 23 24 26 15 17 35 45 22 9 25 38 26 32 35 32 19 12 12 28 19 27 25 24 26 20 15 15 44 39 48 54 51 45 39 45 43
33 34 32 27 27 22 21 20 18 16 15 16 16 16 18 20 17 20 11 10 11 14 9 9 24 23 23 18 21 28 28 27 27 14 15 17 34 18 9 14 28 24 22 32 32 42 56 61 55 44 41 38 43 45
33 27 25 26 26 22 25 16 20 22 23 23 25 25 25 27 20 18 11 1 11 4 9 14 13 17 15 19 24 26 25 23 20 9 21 38 35 13 9 23 32 32 37 40 45 49 49 48 47 40 36 35 36 44
24 25 26 26 26 24 25 24 20 17 19 21 21 23 25 26 26 26 24 38 25 15 9 8 10 16 17 18 10 16 17 22 14 14 10 14 8 12 9 19 36 43 43 45 39 43 51 55 47 42 37 37 37 44
26 26 24 22 23 25 23 20 15 16 20 22 23 25 22 15 19 13 19 15 21 20 9 10 15 4 10 10 4 18 15 10 12 13 11 7 5 8 18 32 37 43 40 49 42 41 45 45 45 41 39 35 38 44
26 29 25 21 21 15 16 17 16 18 21 21 16 13 8 9 9 13 8 11 17 22 14 14 29 20 28 15 8 4 12 8 7 13 8 8 5 14 15 27 42 41 41 42 50 50 52 50 48 44 37 33 42 49
19 20 18 21 23 21 15 16 19 13 9 8 6 5 6 15 7 8 8 12 17 12 18 22 28 20 13 11 6 9 6 2 5 8 7 6 1 12 27 33 35 38 39 37 37 39 40 40 41 40 38 37 40 38
22 21 23 18 20 25 24 18 13 10 11 7 15 18 15 11 14 10 9 12 13 9 14 11 12 15 9 7 10 8 5 4 9 18 3 2 2 23 26 36 41 40 41 40 38 34 36 38 36 33 33 35 33 40
25 26 25 26 25 23 25 20 16 17 15 14 9 8 9 11 7 11 13 10 8 6 11 12 9 11 14 16 11 7 7 11 1 3 3 5 18 26 34 37 40 37 38 37 36 33 35 37 37 32 30 31 34 35
16 15 17 14 14 15 15 15 15 11 8 11 11 8 9 11 12 9 12 8 6 5 3 14 10 11 13 11 8 4 8 6 2 1 8 10 24 28 32 36 34 36 39 39 37 34 35 36 37 36 33 36 30 35
13 10 11 12 13 13 14 15 15 14 10 10 9 8 13 17 13 10 16 9 8 12 12 13 15 16 9 5 4 7 6 4 3 7 8 21 22 26 30 34 30 33 38 37 36 36 36 36 38 38 38 36 34 33
13 11 13 12 10 12 13 13 14 18 9 9 11 14 22 20 15 9 13 9 13 7 15 17 7 7 8 5 5 9 4 6 3 12 18 19 23 26 27 28 26 29 34 33 35 36 35 37 38 37 37 38 37 40
16 9 9 9 9 8 11 10 14 12 11 9 16 21 23 25 25 9 12 11 7 12 9 12 7 3 2 4 5 2 6 12 19 16 17 16 22 25 26 21 24 27 31 31 31 34 35 36 35 38 43 42 40 40
14 15 11 12 11 8 11 13 7 9 14 27 26 29 22 21 23 24 16 14 13 16 17 10 12 5 5 5 5 11 22 21 14 9 13 16 20 22 25 23 21 23 25 29 28 29 33 36 39 39 39 41 42 40
18 16 11 15 15 9 7 11 11 10 20 26 21 22 26 23 25 26 27 22 20 20 15 12 9 11 3 5 1 6 22 14 10 8 9 11 18 24 22 22 22 18 20 22 28 25 28 32 33 36 38 38 43 47
20 18 16 17 14 6 6 6 9 10 14 14 23 23 26 26 28 24 25 26 28 30 23 14 21 33 17 9 15 6 13 5 5 6 12 19 21 23 20 21 22 14 15 18 16 27 23 26 30 32 39 41 40 43
15 16 18 16 12 11 6 8 9 14 20 21 23 19 19 25 27 29 32 32 33 37 29 34 38 36 28 20 8 2 1 5 8 10 17 24 25 22 24 20 19 15 15 17 18 20 22 22 27 30 32 35 40 39
11 14 12 16 10 11 10 15 14 16 16 28 31 31 27 28 26 27 32 34 39 42 39 37 38 35 35 34 29 21 19 15 17 20 23 23 23 22 22 19 20 13 12 15 16 17 18 21 21 27 31 33 34 38
9 10 7 8 7 9 11 13 10 10 7 10 12 8 11 14 16 12 9 21 34 30 30 33 35 36 36 29 27 30 32 31 30 26 23 22 23 18 18 17 14 9 8 11 11 13 14 19 22 23 26 30 34 37
9 5 6 8 14 9 9 11 12 9 8 9 7 8 9 6 6 8 12 28 24 19 23 18 19 25 30 34 37 34 31 28 27 26 25 23 20 16 12 13 10 6 7 7 7 10 11 13 16 17 21 26 30 33
4 8 9 11 11 8 8 7 10 9 10 10 5 9 5 4 5 6 10 9 7 11 8 9 15 20 22 25 28 31 31 29 25 22 19 18 16 14 14 9 6 3 2 2 5 5 7 9 11 13 15 18 25 30
9 11 11 7 7 8 7 5 5 5 5 4 7 8 5 3 5 7 6 16 11 6 5 6 15 16 17 17 17 20 25 25 23 20 17 16 14 14 15 7 9 8 2 2 3 1 2 4 4 5 7 13 22 21
8 9 14 12 10 10 9 15 19 10 6 6 6 5 4 7 4 4 13 11 3 5 5 11 15 13 9 14 10 14 17 19 20 18 13 14 14 12 14 10 3 3 2 1 2 3 3 2 2 1 2 6 10 13
12 9 5 8 8 10 7 8 6 4 5 6 11 4 6 12 8 12 12 16 13 9 10 13 17 14 6 7 13 16 15 15 15 14 14 16 18 17 16 14 7 3 1 2 4 3 4 4 3 4 2 3 5 8
10 12 12 15 12 9 7 9 8 7 4 4 7 6 9 12 18 23 23 11 2 5 4 6 8 15 12 13 12 13 13 13 14 14 13 18 17 15 17 15 10 7 7 7 3 6 7 6 5 4 4 6 8 9
7 5 7 6 5 6 8 14 13 15 18 20 16 15 9 0 27 27 19 15 15 5 3 7 8 14 16 17 19 14 10 8 8 8 10 12 6 10 18 14 12 10 11 7 11 9 4 8 8 8 10 10 10 11
8 5 6 8 9 13 24 23 22 16 11 4 2 5 5 2 14 44 27 21 19 20 17 13 10 10 9 9 13 10 8 5 10 13 12 4 11 5 6 8 10 12 10 7 11 15 16 12 14 13 14 16 13 15
6 5 7 5 8 16 16 11 8 8 10 13 12 10 6 8 17 34 47 29 26 25 21 17 15 17 13 12 10 9 11 7 5 5 8 10 10 6 3 11 13 12 11 14 13 13 11 14 15 14 10 6 7 5
6 9 11 8 7 5 5 3 6 9 21 14 23 22 20 11 15 29 36 35 27 20 19 19 19 17 15 16 18 14 7 6 7 7 6 5 6 8 8 1 4 4 4 3 1 1 1 6 18 23 18 20 13 15
Wind_Direction_850mb
282 283 283 284 285 286 287 290 294 296 299 303 305 299 303 311 321 345 296 302 311 290 283 277 269 265 275 257 267 348 298 180 256 268 293 309 318 339 307 301 291 292 298 292 300 301 294 182 296 287 312 301 302 302
278 278 279 279 280 282 285 290 291 290 289 291 293 290 290 294 299 317 293 279 293 281 267 282 275 263 253 254 272 270 288 305 319 298 305 310 290 289 291 284 297 285 300 277 252 275 298 302 303 292 276 299 311 307
274 273 273 276 280 283 286 287 286 285 288 291 292 292 285 271 276 280 281 289 296 300 305 275 274 247 249 244 236 249 260 258 269 292 314 304 283 287 285 305 323 307 308 304 295 295 324 333 316 339 332 311 308 305
269 270 275 279 280 280 281 281 282 284 286 291 292 296 301 298 278 274 276 292 278 293 285 331 351 239 276 246 231 231 240 270 291 289 287 278 274 287 290 301 294 295 312 308 300 302 322 309 319 314 311 311 308 304
268 271 272 273 275 279 275 274 275 282 285 287 282 283 283 292 277 292 284 272 250 231 306 304 299 277 233 238 231 227 233 240 256 263 241 262 271 275 270 277 276 301 294 293 295 309 305 299 312 317 312 309 311 302
266 268 267 259 262 268 269 278 278 284 291 294 293 287 284 277 293 314 293 162 217 228 274 297 324 275 247 216 201 218 226 231 237 251 258 253 262 284 280 272 299 315 313 302 293 292 290 293 300 306 312 310 316 313
272 270 265 261 255 256 259 267 267 273 281 278 279 280 280 283 285 265 285 318 141 266 276 289 282 172 190 216 221 221 211 211 224 237 242 256 263 224 263 276 293 325 316 306 300 296 292 301 308 310 310 312 315 317
260 259 257 259 253 252 263 271 267 275 287 290 291 293 289 282 277 270 265 256 257 273 247 275 270 245 190 228 217 208 194 197 220 238 258 246 251 205 257 277 318 317 311 306 305 302 299 300 305 308 307 312 316 322
258 259 261 256 259 265 267 261 252 270 293 297 299 302 292 267 249 233 242 251 224 228 260 235 280 88 215 282 299 183 199 192 226 212 221 252 175 223 267 292 304 309 302 304 304 309 317 323 319 317 318 317 309 314
259 256 242 242 238 260 263 243 253 277 306 311 314 244 247 219 241 254 251 198 205 207 231 255 264 277 291 305 287 244 209 219 205 208 170 213 240 262 292 305 299 314 325 329 330 335 335 334 331 327 323 320 315 305
248 231 225 239 242 239 253 237 283 279 317 284 251 250 303 291 253 225 225 220 182 211 211 239 237 245 253 256 271 280 271 117 256 167 213 182 165 319 319 320 331 339 337 330 336 338 340 338 337 333 327 323 318 327
220 235 223 232 250 251 234 245 259 270 254 261 272 288 263 236 225 232 222 196 204 242 178 206 218 221 247 216 221 259 273 223 243 173 224 131 19 331 334 344 343 342 343 346 346 344 345 346 343 339 339 337 334 325
233 238 237 249 253 254 217 229 250 250 266 263 242 249 211 218 254 230 218 207 199 216 176 194 205 220 200 217 224 234 236 243 118 161 99 42 347 349 350 341 346 349 352 351 351 350 349 350 352 353 351 345 341 347
217 213 221 224 221 230 215 228 232 237 239 240 224 237 240 205 232 235 295 335 340 284 289 243 243 212 205 189 226 252 245 256 25 94 54 16 360 349 350 356 357 357 360 359 360 360 359 2 2 9 9 3 358 356
197 206 217 219 233 231 213 210 225 223 249 248 239 243 226 268 244 264 294 285 270 235 287 299 272 242 242 212 92 275 221 186 45 62 43 17 354 355 0 4 4 4 5 7 8 9 10 9 11 13 12 12 7 2
185 207 216 215 221 218 220 224 227 204 239 246 242 262 272 270 292 298 297 257 259 288 290 260 259 246 225 151 212 226 190 88 110 62 38 13 2 5 2 7 7 7 9 10 11 13 13 14 16 16 16 16 13 11
210 229 196 213 213 203 205 220 188 214 228 233 235 235 263 279 290 226 241 274 305 283 292 265 246 350 225 222 230 173 93 125 84 64 36 17 3 359 3 6 9 9 11 11 12 14 17 18 18 21 21 18 19 19
216 212 223 220 204 219 227 206 234 234 239 239 250 262 258 263 272 280 263 263 266 271 290 308 305 276 327 306 164 147 112 97 75 50 28 13 10 2 2 5 5 7 11 14 13 14 18 20 22 22 21 21 20 21
227 201 215 202 191 231 225 212 217 260 248 264 261 264 272 270 264 261 265 255 246 257 273 272 261 264 241 119 42 211 118 90 74 45 13 17 6 1 359 357 10 7 6 8 15 17 19 21 22 23 23 24 25 22
210 217 205 198 200 238 262 224 211 253 268 275 273 262 260 260 259 256 249 240 233 231 227 234 259 273 331 77 192 132 101 99 27 353 354 358 359 352 352 352 353 1 10 18 26 23 24 24 24 23 25 26 26 23
177 198 211 208 211 217 257 287 252 241 279 279 271 278 263 261 259 252 249 239 233 238 235 235 244 258 266 267 321 162 296 293 315 325 327 327 340 332 343 347 350 20 15 22 20 25 26 26 24 24 26 26 26 30
194 188 176 196 222 205 255 237 252 301 278 273 280 270 263 261 261 257 243 229 230 235 235 240 245 248 247 249 251 247 257 270 285 295 298 303 312 323 337 341 343 17 27 24 24 27 28 26 34 26 30 32 32 28
163 187 218 195 207 222 255 208 242 233 252 280 291 269 253 239 239 240 249 237 243 235 231 232 232 237 248 247 241 244 246 252 262 270 279 291 305 306 316 318 2 353 23 29 29 30 28 35 27 35 35 39 40 40
202 234 203 215 215 248 213 216 230 255 267 262 258 261 269 264 281 238 257 260 242 234 219 226 232 230 227 231 239 238 236 238 249 256 259 273 279 282 313 307 349 3 16 33 36 33 29 28 34 39 43 43 42 41
226 234 208 242 225 244 247 236 220 219 240 248 260 269 266 262 256 250 251 236 249 223 201 182 228 223 228 224 224 226 225 226 229 238 244 243 255 273 276 271 284 338 317 1 28 20 29 37 44 48 50 47 44 41
238 216 202 239 222 215 245 268 243 277 316 281 255 290 308 292 271 276 27 12 23 12 6 259 287 251 210 225 206 205 201 206 212 222 228 229 236 256 284 298 288 289 282 303 350 327 9 37 59 61 42 39 40 37
253 242 217 248 274 285 286 276 278 264 238 240 247 264 241 234 197 81 352 16 335 312 261 238 267 294 220 192 183 175 184 191 203 208 219 234 242 254 257 320 343 274 108 327 306 254 241 231 205 170 77 40 31 26
253 294 255 271 244 245 253 282 281 256 274 312 304 261 336 10 24 331 321 322 302 284 250 247 241 248 242 175 182 189 192 198 213 226 246 254 252 249 242 224 210 215 174 272 301 261 237 224 218 217 244 313 346 351
258 273 291 277 271 242 240 221 239 238 270 302 309 341 9 340 356 347 1 24 160 114 126 198 191 185 193 190 186 183 181 183 193 212 232 257 216 207 202 202 212 221 237 230 290 205 226 232 237 241 272 300 316 316
267 281 280 285 256 244 228 215 246 263 276 276 273 292 297 115 28 39 64 83 78 86 157 56 132 160 164 170 167 162 160 189 232 299 304 311 259 193 190 201 215 230 243 247 240 236 188 200 232 254 279 292 306 315
287 269 259 257 262 255 269 286 285 291 281 306 263 224 277 301 32 40 61 85 89 89 73 59 78 107 106 107 140 156 162 249 235 245 257 308 335 327 247 235 239 263 240 267 278 260 253 250 267 280 292 305 315 329
273 265 284 283 290 314 349 31 66 66 66 62 44 42 64 55 33 20 20 45 74 87 82 74 71 65 87 112 141 182 218 244 227 203 196 218 207 204 249 251 272 283 281 286 280 271 282 274 267 274 279 306 271 180
271 271 271 269 274 297 17 112 105 73 52 44 28 36 47 59 38 11 11 25 38 53 66 71 70 75 84 81 63 38 82 105 134 140 137 128 131 134 95 262 283 262 252 215 213 85 304 303 283 278 263 240 257 283